Regional Weather Roundup
Issued by NWS

Home | Current Version | Previous Version | Text Only | Print | Product List | Glossary Off
Versions: 1 2 3 4 5 6 7 8 9 10 11 12 13 14 15 16 17 18 19 20 21 22 23 24 25 26 27 28 29 30 31 32 33 34 35 36 37 38 39 40 41 42 43 44 45 46 47 48 49 50

000
ASUS43 KLSX 191007
RWRMO

WEATHER SUMMARY FOR MISSOURI
NATIONAL WEATHER SERVICE SPRINGFIELD MO
500 AM CDT SUN APR 19 2015

NOTE: "FAIR" INDICATES FEW OR NO CLOUDS BELOW 12,000 FEET WITH NO
       SIGNIFICANT WEATHER AND/OR OBSTRUCTIONS TO VISIBILITY.
       CURRENT SKY AND/OR WEATHER CONDITIONS ARE NOT AVAILABLE FOR
       CHILLICOTHE AND FARMINGTON.

MOZ001>031-035>038-043-044-053-054-191100-
...NORTHERN AND WESTERN MISSOURI...

CITY           SKY/WX    TMP DP  RH WIND       PRES   REMARKS
KANSAS CTY INT RAIN      55  54  96 SW13      29.75R FOG
KANSAS C DTWN  RAIN      57  54  89 W9        29.74S
LEE`S SUMMIT   TSTM      56  54  93 W10G24    29.74R FOG
ST JOSEPH      CLOUDY    58  57  97 CALM      29.72F
CHILLICOTHE      N/A     58  57  97 CALM      29.75F
KIRKSVILLE     FOG       53  53 100 CALM      29.75F VSB 3/4

$$
MOZ066>068-077>081-088>096-101>105-191100-
...SOUTHWEST MISSOURI...

CITY           SKY/WX    TMP DP  RH WIND       PRES   REMARKS
SPRINGFIELD    CLOUDY    59  57  93 W16G23    29.72F
JOPLIN         MOCLDY    55  51  86 N5        29.75F

$$
MOZ032>034-039>042-045>050-055>058-069>072-191100-
...CENTRAL MISSOURI...

CITY           SKY/WX    TMP DP  RH WIND       PRES   REMARKS
COLUMBIA       PTCLDY    56  54  93 E6        29.72F
JEFFERSON CITY CLOUDY    54  53  97 CALM      29.73S FOG
ROLLA          CLOUDY    57  55  93 CALM      29.71F
SEDALIA        FOG       55  53  93 S3        29.73F VSB 1/2
WHITEMAN AFB   PTCLDY    57  57  99 S5        29.70F
WARRENSBURG    FOG       55  54  94 CALM      29.71F VSB 1/2
OSAGE BEACH    CLOUDY    54  52  94 CALM      29.71F

$$
MOZ051-052-059>065-191100-
...EAST CENTRAL MISSOURI...

CITY           SKY/WX    TMP DP  RH WIND       PRES   REMARKS
ST LOUIS INTL  MOCLDY    64  52  64 CALM      29.72F
SPIRIT OF STL  CLOUDY    59  56  89 CALM      29.71F
ST CHARLES     MOCLDY    62  51  67 CALM      29.71F

$$
MOZ072>076-082>087-097>100-106>115-191100-
...SOUTH CENTRAL AND SOUTHEAST MISSOURI...

CITY           SKY/WX    TMP DP  RH WIND       PRES   REMARKS
CAPE GIRARDEAU HVY RAIN  63  63 100 E6        29.69F FOG
FARMINGTON     CLOUDY    61  57  88 CALM      29.74F
POPLAR BLUFF   LGT RAIN  64  62  93 NE6       29.67F FOG
WEST PLAINS    CLOUDY    59  57  93 NE5       29.71F

$$


USA.gov is the U.S. government's official web portal to all federal, state and local government web resources and services.